GFSSGP_sfc_rhum_000.txt.gz
RH
36 10 13 8 12 10 11 8 8 8 10 17 16 26 35 39 46 72 51 59 59 52 49 53 83 79 80 84 86 87 87 85 87 82 81 85 87 89 86 85 87 81 82 74 86 80 76 77 82
14 8 6 9 13 12 12 8 8 8 7 10 15 22 52 46 40 45 54 50 54 51 52 60 88 84 78 78 78 83 85 86 87 85 80 88 84 88 86 82 81 87 81 72 80 85 79 79 84
20 9 7 10 10 13 16 9 8 6 7 10 15 33 56 48 38 42 47 50 52 52 55 70 88 86 80 78 79 82 84 86 88 87 82 83 86 83 82 82 79 76 76 82 76 88 93 79 86
6 6 6 9 9 9 10 9 8 7 9 9 12 38 48 39 38 42 40 47 49 49 54 85 90 84 78 72 76 82 82 85 89 90 88 86 85 77 74 79 77 81 85 79 89 85 93 92 86
6 7 9 8 8 7 7 7 8 8 13 14 15 67 55 47 43 39 41 39 46 53 55 69 91 89 85 80 83 86 85 83 84 88 88 86 84 85 83 83 84 83 84 79 84 86 86 94 93
7 6 8 9 8 6 7 8 9 12 14 16 55 73 50 46 45 44 35 34 36 49 56 64 88 89 86 85 85 85 85 82 83 86 86 88 87 87 87 89 88 86 83 81 81 86 89 86 85
7 8 8 7 8 7 7 6 8 8 14 15 34 67 55 46 44 42 34 34 36 38 43 51 66 77 86 84 82 85 84 82 80 82 81 88 90 91 88 88 87 82 83 86 80 82 84 85 87
6 6 6 6 7 8 6 6 7 8 8 6 7 23 60 38 42 40 38 37 40 43 40 46 48 62 76 74 80 82 85 83 81 85 85 89 92 90 86 85 82 80 85 84 80 77 85 84 87
4 7 7 6 7 7 5 6 8 8 8 9 10 15 31 35 38 39 39 36 37 36 47 57 55 58 60 57 68 82 85 84 87 86 85 90 77 77 81 84 83 79 78 80 77 74 78 83 85
7 9 8 6 6 7 6 6 7 7 8 10 14 15 23 31 34 34 31 33 35 38 38 47 63 68 66 44 50 72 62 68 71 68 73 72 75 84 78 86 87 82 83 83 81 81 78 76 84
8 9 7 8 10 7 7 7 7 8 9 12 12 16 19 23 26 29 24 25 28 35 38 44 59 68 68 64 69 69 69 72 72 70 73 80 75 81 81 83 84 87 86 91 89 90 93 90 94
11 10 10 11 10 10 12 11 11 10 10 11 11 13 17 21 24 26 27 29 26 29 33 41 58 64 66 61 56 64 59 62 65 68 68 79 82 84 82 85 78 84 78 81 93 97 94 95 92
12 12 12 12 12 12 12 12 12 11 9 11 11 16 18 20 21 23 27 27 32 33 33 38 50 60 63 60 65 65 63 61 58 61 62 68 72 80 77 81 81 81 81 86 90 93 95 96 96
13 13 13 12 12 11 13 12 10 9 9 12 13 16 18 19 19 20 22 23 26 26 34 38 44 54 53 58 63 66 62 58 57 60 64 64 74 77 76 74 75 76 78 82 92 95 93 93 94
13 16 14 14 10 9 11 10 10 10 11 12 12 15 16 15 16 18 20 23 22 26 30 35 39 46 50 54 56 58 52 47 55 62 60 62 66 66 64 67 66 70 74 79 86 85 89 95 94
15 14 11 9 10 10 10 12 8 8 9 12 12 13 15 16 15 15 19 20 24 31 28 31 22 38 44 49 46 44 45 52 54 62 64 60 58 57 61 63 67 66 67 66 66 69 76 84 88
12 14 13 13 8 9 10 13 9 8 8 10 12 12 12 15 15 15 17 22 25 28 28 32 32 33 40 43 41 43 46 48 50 59 58 56 51 49 52 58 66 61 56 57 56 60 61 60 61
20 18 16 16 12 13 15 16 11 10 9 10 11 12 13 14 13 16 18 23 25 32 31 32 33 36 40 42 44 45 48 46 46 50 49 50 49 45 49 55 54 53 54 57 62 64 61 61 60
14 16 16 15 12 14 16 15 12 9 9 12 13 15 16 17 14 17 24 28 30 35 32 32 32 38 38 42 46 46 49 47 48 45 44 48 46 46 49 52 49 52 53 55 55 60 61 65 63
13 16 19 16 15 18 17 16 12 11 12 12 13 16 18 18 17 19 23 31 35 34 34 34 32 35 36 36 40 43 46 42 42 44 50 46 50 46 45 52 48 49 54 57 60 61 62 65 62
16 23 24 23 19 15 16 14 13 12 12 13 15 16 16 19 20 20 27 33 38 40 41 34 32 33 38 39 36 41 44 46 43 43 46 50 50 51 51 50 52 52 55 60 63 61 61 65 64
23 19 23 25 26 28 19 22 13 13 14 14 16 21 22 21 21 22 28 31 37 41 44 40 37 34 33 43 37 45 38 36 35 42 38 36 52 54 48 50 52 56 58 58 62 51 71 67 68
24 23 26 24 27 26 20 20 15 13 13 14 17 19 23 25 26 25 25 27 33 37 48 46 42 40 37 42 45 43 48 45 47 49 47 45 47 44 42 44 52 57 62 64 66 66 67 70 71
21 24 23 22 27 51 24 25 21 15 15 14 14 17 22 25 27 26 26 28 29 40 45 50 47 37 40 43 46 53 51 53 54 53 54 52 51 54 55 48 57 60 60 60 63 63 62 66 67
25 33 58 76 70 60 22 26 26 18 14 15 18 21 26 30 30 32 29 29 34 38 42 46 43 39 40 48 50 50 57 57 56 55 54 50 51 49 52 52 54 54 54 55 56 58 61 61 58
30 34 69 73 65 55 30 32 19 13 13 14 16 23 24 30 32 30 31 35 35 39 41 40 35 36 37 43 47 53 54 54 55 53 53 52 50 49 46 48 51 50 52 55 57 58 58 60 62
32 43 32 57 90 74 45 28 20 16 15 18 19 20 28 30 31 29 31 34 38 41 42 47 42 38 39 45 52 52 54 54 53 50 54 52 50 38 50 52 52 54 58 59 59 61 58 57 59
31 29 53 67 91 68 38 39 32 24 26 26 26 26 30 30 31 32 33 37 39 38 39 45 50 41 40 42 46 47 50 52 49 50 49 47 48 46 50 50 51 52 53 54 58 60 59 61 61
33 41 45 37 54 75 76 46 30 31 30 29 27 28 30 33 32 33 34 36 38 40 39 38 39 38 42 43 53 54 49 49 46 44 45 44 49 47 48 48 49 47 47 49 53 55 55 54 54
28 35 35 79 68 64 74 61 30 28 28 28 27 27 29 30 29 30 31 34 39 43 44 42 41 41 41 42 50 50 47 45 47 46 46 50 49 49 51 47 44 43 43 46 48 50 46 49 50

GFSSGP_sfc_rhum_003.txt.gz
RH
51 21 30 20 21 22 22 16 13 13 16 19 38 48 61 61 67 94 77 73 64 64 68 77 86 86 86 88 89 90 88 88 88 86 85 89 90 85 83 82 80 75 68 68 72 74 84 79 79
46 19 13 17 24 27 21 16 12 13 16 17 34 34 53 73 65 73 74 65 64 62 75 81 89 87 86 86 88 88 86 87 88 88 90 90 88 85 80 76 79 77 74 70 76 85 84 92 90
37 21 13 20 26 24 20 14 13 12 12 15 48 42 56 65 54 65 67 62 63 72 83 87 89 84 83 88 89 89 90 90 90 88 89 90 87 85 84 78 80 77 75 76 76 80 85 87 87
20 16 13 16 18 14 13 13 13 13 14 32 56 68 63 56 59 59 59 60 68 90 95 93 90 87 85 88 89 89 89 92 91 91 90 86 86 83 82 82 81 77 76 80 84 86 84 86 87
22 15 16 16 14 11 11 11 12 22 47 54 60 67 72 55 51 52 61 58 74 90 93 95 92 89 88 84 84 87 88 88 92 92 90 89 85 81 78 78 79 80 86 88 86 76 74 78 87
13 13 16 17 14 10 8 9 10 15 24 44 57 65 68 53 54 52 50 59 63 75 86 84 88 86 84 84 84 84 84 86 89 92 92 89 91 91 89 90 89 88 87 82 81 82 77 84 86
14 16 17 13 12 10 10 8 11 13 15 30 48 68 70 58 54 53 48 46 58 70 82 92 88 83 83 80 81 82 82 85 88 89 92 94 92 92 90 88 84 85 85 86 87 87 88 91 92
10 13 13 12 12 13 10 10 12 12 14 19 43 59 65 44 52 57 50 54 52 60 65 90 92 86 85 80 79 80 82 85 89 90 93 96 92 90 88 87 84 85 83 80 78 85 81 83 86
10 15 17 13 10 17 9 10 14 14 13 15 16 44 50 49 52 63 57 52 55 55 69 75 81 82 84 77 77 83 84 86 90 90 92 96 93 91 86 86 85 79 84 80 75 80 85 86 86
15 16 13 14 14 13 12 10 12 11 11 18 20 37 46 45 53 52 53 55 52 52 61 68 73 78 74 59 85 86 88 91 90 86 90 89 92 91 86 89 86 82 82 83 82 83 82 82 88
16 19 16 16 16 14 14 15 12 14 16 20 22 29 42 46 47 45 42 47 46 45 48 59 74 76 76 72 85 92 84 89 85 82 88 83 90 91 95 98 96 97 86 98 93 95 97 93 95
17 14 16 16 15 16 19 18 16 18 17 14 16 25 28 32 34 36 39 38 39 43 47 60 68 70 73 72 75 74 80 78 86 82 86 95 98 94 95 95 94 93 95 94 88 98 96 94 95
18 17 16 15 15 17 16 17 17 16 12 15 15 22 28 29 32 35 26 28 32 33 42 58 66 71 69 68 72 66 68 68 66 74 67 80 92 94 93 95 93 95 93 92 96 98 97 97 96
21 18 19 17 17 16 18 19 20 13 14 16 16 24 28 28 28 33 27 26 28 28 40 49 58 62 62 73 69 67 64 57 64 71 71 73 81 83 80 88 89 89 89 93 94 93 94 98 98
19 22 21 18 17 15 16 16 16 12 16 16 18 20 22 23 26 25 26 27 27 30 37 41 43 57 56 68 68 66 61 60 65 68 67 68 74 66 69 70 77 78 85 90 92 90 91 94 93
24 26 27 19 16 16 14 19 14 12 17 18 17 19 21 22 21 24 24 27 27 31 34 32 27 48 50 62 64 58 49 52 62 72 71 64 63 67 69 72 71 61 69 74 62 70 72 82 81
24 29 23 20 14 16 16 20 17 15 14 16 18 18 21 23 23 22 24 25 29 31 32 36 26 33 43 45 49 52 54 56 61 76 71 63 57 52 57 71 63 56 64 63 61 62 67 66 65
28 26 22 27 19 18 22 23 20 16 17 19 21 24 23 23 24 22 25 30 32 33 32 35 34 31 40 46 45 49 50 46 58 66 68 60 59 50 50 64 66 57 60 67 62 61 65 67 68
22 22 26 25 20 25 26 25 20 19 18 20 23 23 23 23 24 30 33 31 34 35 30 30 33 37 40 43 46 45 50 50 54 49 55 57 55 48 48 55 61 62 60 60 58 64 60 62 66
23 28 34 27 23 26 28 25 23 18 19 20 23 25 24 24 24 26 32 37 32 33 34 33 33 36 40 43 45 46 47 47 47 50 55 57 55 53 50 54 50 52 55 52 57 67 66 69 66
27 33 35 35 31 28 30 29 20 21 19 21 22 22 23 23 25 26 26 35 41 40 37 36 36 36 43 40 42 47 52 50 45 46 56 53 51 55 53 53 58 57 60 60 65 60 59 68 70
31 30 31 34 42 47 31 44 24 23 22 22 22 28 29 28 27 28 28 32 42 42 43 37 36 39 40 47 43 43 43 42 42 44 46 51 57 57 55 53 57 58 64 64 70 65 72 73 77
31 31 34 36 43 47 35 40 25 24 25 25 28 29 31 31 31 29 32 31 33 44 50 46 43 42 41 46 50 45 47 54 48 50 48 52 62 58 52 56 63 65 70 64 65 67 69 78 80
29 38 40 46 44 66 40 40 39 27 23 24 28 31 32 33 33 34 36 34 36 45 52 54 49 45 46 46 48 52 45 43 53 54 57 59 59 59 54 51 59 60 58 56 58 58 57 62 69
36 53 83 77 78 77 35 40 38 28 24 26 30 31 32 32 38 40 37 35 42 46 46 49 53 53 50 53 54 52 52 45 46 56 59 59 57 58 51 50 52 53 54 54 54 55 58 61 66
44 47 87 82 89 78 43 51 34 24 21 22 23 27 35 32 34 38 42 45 48 48 48 49 49 48 48 54 58 58 58 54 45 55 62 62 60 57 51 53 53 49 49 50 51 49 59 66 66
44 67 46 66 90 87 68 46 27 27 29 30 30 31 34 37 39 43 44 51 53 52 52 56 52 51 52 53 58 64 67 61 63 55 56 58 53 47 52 52 51 54 57 57 57 70 69 70 68
41 42 69 84 93 90 61 57 50 41 36 35 39 39 43 44 42 44 47 54 52 53 53 55 51 47 45 52 52 56 53 50 53 52 50 49 50 49 53 56 62 64 58 58 59 61 63 69 73
48 61 56 52 75 94 98 76 43 38 40 41 31 38 40 41 42 42 43 49 56 57 58 58 53 52 44 54 60 55 54 49 48 46 47 50 50 46 52 55 60 56 53 52 54 59 60 65 64
37 48 46 88 91 87 93 76 37 42 38 30 42 39 42 39 41 43 49 56 58 59 62 57 56 52 44 61 55 52 49 46 46 48 51 56 54 52 52 55 51 52 54 56 60 61 60 59 60

GFSSGP_sfc_rhum_006.txt.gz
RH
58 31 31 19 19 23 27 17 16 16 27 54 56 56 67 69 72 89 84 72 74 75 79 82 87 88 90 91 90 89 89 89 88 87 90 89 86 83 81 80 78 70 65 70 71 74 80 81 84
44 22 15 20 25 27 23 16 16 15 43 43 46 62 74 92 79 86 84 71 68 73 82 88 88 89 90 90 90 89 86 86 91 90 89 89 85 83 81 80 75 73 66 71 77 78 79 86 75
29 23 13 22 28 25 20 16 13 22 44 33 60 63 71 74 77 80 74 70 74 88 92 87 86 88 91 90 90 90 90 91 92 91 89 89 85 84 80 77 78 75 74 74 78 80 83 82 81
22 15 15 17 20 18 16 14 15 18 47 53 64 76 71 64 67 73 69 74 89 95 94 92 88 88 91 91 89 90 91 91 93 93 90 88 84 80 81 82 80 78 76 74 76 78 79 85 84
20 16 18 18 16 15 11 12 21 47 56 57 57 65 74 66 64 67 68 75 88 95 95 93 90 87 86 84 86 89 90 92 92 92 92 88 84 81 78 78 83 80 82 84 84 85 87 86 86
14 15 18 20 16 11 10 12 18 34 56 56 61 67 65 65 64 67 66 77 80 90 95 90 88 86 85 84 85 86 88 91 93 92 92 91 92 91 90 89 86 84 88 84 84 82 83 81 86
14 16 20 17 15 12 11 12 14 13 14 40 50 70 77 66 63 59 64 74 80 84 93 94 90 85 86 86 84 84 86 90 92 93 93 92 93 93 90 88 87 87 87 87 84 85 86 85 90
14 14 17 17 13 13 8 11 14 13 14 44 52 60 62 61 61 59 60 77 83 91 93 95 93 88 84 83 86 86 87 88 93 94 94 92 92 91 88 87 87 86 84 84 82 87 88 88 89
13 16 19 21 15 21 12 16 15 14 14 18 35 46 50 48 62 59 64 70 75 80 94 96 96 92 86 79 78 86 85 89 91 94 95 95 96 94 92 87 86 84 83 80 79 81 86 84 83
14 19 25 16 14 18 18 17 14 12 20 22 50 46 51 59 61 62 64 67 64 72 79 85 92 92 90 65 86 90 89 93 93 95 98 98 96 96 90 90 86 82 83 84 86 86 86 87 92
39 23 19 19 19 19 23 19 17 16 20 22 51 47 57 62 60 59 60 57 56 55 66 77 80 84 78 81 96 98 98 98 97 93 95 94 92 96 98 98 98 97 90 98 95 96 97 94 96
20 19 18 19 19 20 23 23 20 40 16 17 33 51 57 58 59 58 46 52 49 51 61 78 79 77 78 82 95 94 92 96 95 94 91 96 98 97 98 98 98 96 97 96 96 98 97 94 93
21 20 19 17 17 19 20 19 18 19 16 18 26 31 38 45 47 44 42 45 48 48 58 72 77 79 76 72 74 73 74 78 77 80 80 96 97 97 97 96 96 96 97 97 97 96 96 96 95
26 22 22 19 19 21 20 22 22 17 18 18 26 29 30 30 31 34 34 37 39 43 56 71 72 75 75 76 72 69 68 66 72 78 79 86 94 95 96 96 96 96 94 94 92 92 92 94 94
24 25 22 21 21 20 17 18 18 14 16 19 21 27 28 26 29 30 28 30 30 42 49 60 65 68 65 75 71 68 63 61 71 74 75 80 78 73 79 83 91 89 91 90 92 90 91 90 91
28 28 29 21 21 17 16 20 14 16 20 21 22 24 26 27 26 30 30 29 32 40 44 44 42 61 61 71 72 68 63 64 69 75 76 72 74 71 76 78 75 72 77 88 70 70 70 73 75
29 30 29 23 17 18 20 20 18 20 19 20 22 23 26 28 25 26 28 36 34 39 38 33 46 48 49 54 62 56 56 55 62 80 77 70 68 66 70 79 72 62 69 71 64 67 68 66 66
33 29 25 33 23 29 27 27 24 19 20 19 22 22 24 25 30 29 29 34 37 38 39 36 31 34 43 50 51 54 56 55 61 76 78 69 66 60 62 73 70 63 69 71 70 62 69 68 66
29 32 37 31 27 32 34 34 28 22 26 27 28 28 29 32 41 37 36 38 36 36 34 37 36 37 43 48 50 51 50 54 57 63 70 70 65 60 58 64 69 70 66 69 65 64 66 65 68
27 39 39 33 29 36 35 34 26 21 25 26 28 30 28 31 34 34 35 40 34 34 34 34 33 36 42 46 48 46 48 50 49 53 59 70 68 62 57 61 65 66 69 67 67 68 71 72 74
32 41 41 39 38 38 36 34 25 23 27 26 28 28 27 27 29 34 37 38 40 37 37 34 35 36 41 45 47 50 56 57 56 53 56 61 64 60 60 59 66 64 67 66 63 64 67 71 76
37 30 36 39 46 51 38 55 33 25 27 28 28 30 29 28 31 30 32 42 45 40 44 40 39 39 41 48 49 48 38 38 37 38 50 56 58 58 61 62 65 66 72 73 74 70 79 80 80
33 34 42 45 52 54 42 47 32 26 26 26 35 34 37 38 34 34 36 35 34 40 46 48 45 45 44 50 55 54 48 45 42 57 52 55 62 62 66 66 71 75 72 65 60 59 59 71 72
34 42 49 52 53 69 49 45 42 35 27 35 38 36 36 38 40 38 39 40 46 50 52 54 53 49 51 53 55 61 58 50 54 55 60 67 70 70 70 62 66 64 63 61 62 57 58 59 58
43 60 83 74 80 76 46 50 43 35 30 30 32 37 40 35 38 39 37 47 53 56 56 53 55 52 51 60 62 63 64 60 57 51 56 65 60 61 58 59 61 61 62 64 67 65 68 64 59
48 58 86 83 88 78 52 56 41 30 31 30 30 32 35 44 41 44 52 55 56 55 55 50 48 50 49 55 58 66 71 77 74 68 72 73 64 65 62 64 68 69 69 73 72 76 80 77 72
48 66 52 69 93 89 72 54 36 34 39 37 39 38 44 45 51 52 55 58 60 59 60 61 60 52 53 58 62 63 65 68 65 64 65 64 59 54 62 73 82 88 90 87 71 75 71 71 71
46 45 69 85 88 95 74 67 54 44 44 41 48 47 47 50 49 50 55 60 61 62 63 65 62 58 61 55 58 54 54 58 60 60 59 62 65 70 79 87 88 89 76 70 68 72 69 72 73
54 70 62 63 84 97 98 86 54 48 47 47 45 50 50 49 54 59 57 55 54 54 58 65 69 68 52 52 60 59 52 53 54 56 60 58 60 63 68 70 70 71 70 67 65 66 68 71 71
53 61 64 91 85 91 94 74 39 50 40 49 51 50 51 52 58 63 63 62 64 66 70 70 73 56 54 58 61 59 55 53 57 61 61 60 58 54 55 58 58 60 61 64 65 68 65 69 67

GFSSGP_sfc_rhum_009.txt.gz
RH
64 32 30 20 17 22 27 19 16 19 75 72 61 60 70 82 73 70 82 75 80 86 85 85 91 92 92 90 90 90 90 89 88 90 90 88 83 81 78 77 79 72 72 71 72 77 78 76 76
49 24 16 22 22 25 21 19 22 52 71 67 63 70 86 95 87 94 89 77 74 84 89 90 92 91 90 90 91 90 86 88 90 90 90 88 85 82 81 81 79 76 71 72 71 73 80 74 78
36 20 14 24 29 25 23 20 43 61 61 50 72 72 76 88 83 85 80 76 86 94 91 88 92 92 90 90 90 90 89 92 92 93 90 88 85 82 81 77 80 75 75 74 74 75 79 82 79
22 15 16 18 20 20 21 26 25 39 53 59 71 81 73 70 78 81 79 81 90 94 93 88 91 92 90 88 87 87 88 92 94 93 89 87 85 84 83 82 79 77 77 74 76 77 79 86 88
16 16 17 22 19 16 19 39 44 55 60 60 60 75 84 74 78 81 86 82 90 95 94 90 89 88 88 84 84 89 90 92 92 93 91 88 86 83 80 83 84 82 78 84 84 86 90 89 89
13 15 17 21 16 14 13 28 30 51 57 57 61 68 77 73 82 83 81 88 80 91 94 91 86 84 84 85 87 89 91 92 92 92 92 91 90 91 89 85 81 82 83 88 86 86 84 88 84
14 15 19 20 15 12 14 16 15 18 36 43 57 86 83 75 76 78 85 92 88 93 95 94 92 87 87 86 86 88 90 92 93 91 92 92 93 94 91 89 88 88 88 88 83 88 87 86 86
15 15 19 17 14 14 11 14 17 14 22 53 63 68 85 72 68 74 83 93 94 95 95 94 93 91 90 90 89 88 91 92 93 92 92 91 92 91 90 89 88 86 85 82 82 87 88 88 88
15 18 24 22 18 21 15 20 16 16 33 30 45 51 49 64 69 73 84 88 94 94 95 95 94 92 89 81 81 87 86 91 94 95 93 96 96 94 92 87 87 86 84 84 85 84 85 83 84
18 22 20 18 16 21 18 22 16 15 36 51 63 54 62 67 72 69 78 84 88 96 96 96 95 94 92 72 85 90 90 94 96 98 98 98 96 95 91 90 86 82 84 86 85 86 87 90 97
23 23 19 19 18 18 24 22 20 17 29 45 49 54 71 76 69 69 72 71 77 91 90 95 96 94 94 91 95 98 98 98 97 95 98 98 95 97 98 98 98 96 88 97 94 96 98 95 96
19 22 20 21 19 22 25 42 24 42 17 18 44 48 71 71 65 62 72 67 64 66 73 84 89 86 82 94 98 97 98 98 98 97 95 97 98 98 98 99 98 97 98 96 97 98 96 96 95
22 22 21 20 20 22 21 21 20 20 17 20 45 54 66 67 63 73 58 64 58 56 68 83 86 87 77 84 84 90 91 98 96 96 94 96 97 97 98 97 98 97 98 98 98 96 96 95 95
28 25 23 22 22 24 24 24 25 19 21 20 39 56 64 62 59 49 54 57 56 54 63 76 84 86 77 77 74 74 76 76 81 84 83 92 96 97 97 98 97 97 96 96 94 93 92 92 93
25 26 25 26 25 23 22 18 19 19 20 20 32 41 43 42 40 36 45 48 47 50 59 76 77 82 81 79 75 72 68 68 74 80 83 89 93 92 94 97 98 97 95 91 92 90 91 83 85
26 27 28 21 27 21 18 22 15 20 20 19 24 31 32 32 33 39 36 41 40 50 59 66 56 72 70 82 78 74 72 71 71 80 83 83 82 77 80 82 90 89 82 95 85 72 72 73 74
31 33 31 25 25 27 22 22 16 23 21 20 24 27 31 33 28 29 32 34 37 50 52 47 62 66 63 74 77 72 66 64 64 79 83 79 79 78 80 82 80 75 76 85 71 70 69 67 66
37 34 31 34 27 34 37 28 27 28 23 23 29 28 29 28 34 36 33 37 43 47 41 36 51 52 52 56 59 59 61 65 66 68 81 78 79 76 72 79 81 72 73 75 75 68 74 70 67
31 37 45 36 30 37 42 41 34 32 29 29 30 31 36 36 44 42 42 43 42 45 43 36 35 38 50 53 54 55 53 57 62 62 64 78 76 72 72 72 77 76 72 70 73 70 67 71 74
35 41 40 38 33 42 40 39 26 24 27 32 34 37 36 38 38 39 42 42 38 38 39 40 38 39 42 47 48 49 51 52 53 58 62 71 75 72 68 64 66 72 71 73 76 72 76 74 79
36 42 42 41 41 44 42 39 28 26 29 28 30 32 34 37 38 38 37 38 41 39 38 37 37 38 42 46 49 51 57 58 58 55 59 56 70 70 70 63 60 67 71 68 71 75 74 73 82
42 34 40 42 50 53 44 49 36 28 31 31 32 35 36 33 34 35 39 40 42 40 44 44 43 43 42 48 50 53 45 42 39 43 46 47 62 60 64 62 62 64 76 76 76 74 81 80 76
40 41 47 52 56 62 44 48 40 34 30 35 42 38 37 38 36 33 32 35 41 45 51 56 55 53 52 56 58 61 62 56 52 54 62 58 60 69 66 66 67 72 79 75 71 66 64 68 68
37 50 53 57 57 68 55 51 45 40 37 42 39 38 43 40 37 42 40 47 52 59 60 58 56 54 53 54 60 68 70 65 68 66 69 64 72 75 77 74 72 65 66 70 69 65 63 65 68
47 64 79 69 79 76 54 51 45 37 35 38 40 39 38 40 42 45 55 56 58 61 61 56 58 58 58 61 63 61 67 76 78 75 74 73 75 74 73 68 67 72 73 76 76 84 86 88 88
53 61 84 74 89 82 57 60 43 36 34 33 35 37 41 42 48 55 58 63 63 64 63 65 63 63 62 66 60 65 67 75 79 84 81 83 76 78 76 80 80 84 86 88 89 94 95 94 94
54 70 58 79 95 92 77 58 43 42 48 39 38 42 53 58 60 64 66 64 64 65 65 70 68 66 67 65 62 63 61 64 67 66 76 78 73 72 90 94 91 89 88 92 93 93 91 87 82
47 49 73 88 89 93 80 78 61 51 54 45 54 55 56 59 61 64 66 64 63 65 68 74 70 72 72 55 57 58 60 61 63 68 70 72 77 84 89 88 83 84 89 88 87 79 73 71 76
62 74 69 70 87 96 98 85 61 56 56 52 58 56 58 63 64 65 66 66 67 70 70 74 74 78 64 60 62 67 66 59 60 64 67 71 73 68 71 64 73 82 80 74 73 70 70 71 70
56 67 68 89 85 92 95 76 50 55 54 57 65 60 61 60 65 67 69 68 71 73 74 74 80 76 64 68 68 67 69 59 60 64 62 63 58 58 59 62 62 66 66 66 69 70 68 70 70

GFSSGP_sfc_rhum_012.txt.gz
RH
66 34 30 21 17 21 26 20 18 34 72 73 67 62 81 96 80 73 84 79 89 92 92 93 92 92 91 91 91 91 89 88 88 88 88 86 83 80 79 81 77 72 70 70 68 73 78 78 78
61 24 17 22 22 24 22 19 52 58 76 76 67 73 86 98 92 96 91 79 81 88 92 94 92 90 89 90 90 90 88 89 90 90 89 86 82 81 79 84 79 74 70 72 70 72 78 75 79
36 15 14 24 29 27 27 23 69 71 76 60 82 81 82 96 93 92 84 77 88 93 93 95 91 89 88 89 89 90 90 91 92 93 89 88 85 83 82 83 80 78 81 75 73 74 76 84 82
21 14 16 18 24 22 26 25 64 64 60 65 79 83 79 80 84 82 80 84 92 93 91 93 91 89 88 87 85 85 88 93 92 91 90 87 86 84 84 83 79 74 76 75 77 78 80 85 88
16 16 18 18 20 23 33 37 44 56 62 63 65 85 86 86 86 84 88 85 91 94 92 92 92 88 86 82 82 88 90 91 93 92 91 89 86 84 81 81 84 84 80 84 86 86 88 89 89
14 16 19 20 20 15 18 33 47 53 57 61 71 78 82 86 89 89 86 90 87 93 93 91 87 84 85 86 86 88 89 90 90 90 92 90 90 91 89 86 81 82 85 89 85 85 86 85 85
13 18 21 19 18 16 15 12 23 36 45 52 66 84 85 86 88 87 92 90 92 94 94 92 90 86 87 86 88 89 90 92 91 90 92 92 94 93 90 90 88 87 87 87 87 89 91 90 91
16 15 20 18 15 16 14 15 18 20 41 58 63 85 84 76 80 90 94 93 93 95 93 93 92 90 90 90 88 88 91 92 92 90 91 91 91 90 87 88 87 85 83 84 85 86 85 84 84
17 20 22 29 17 26 18 38 19 20 41 34 46 66 56 69 83 92 95 96 96 93 94 93 92 91 88 83 82 88 88 92 94 93 92 95 96 93 91 88 87 85 84 84 84 85 86 86 86
18 22 31 18 16 45 22 25 17 24 47 63 66 67 78 77 83 89 94 95 95 96 95 95 94 93 90 73 85 91 90 94 96 98 97 97 95 94 91 89 85 80 82 83 84 84 86 86 93
43 24 21 22 20 20 25 22 21 25 50 48 42 66 81 84 79 84 90 92 93 94 96 96 95 95 94 94 94 98 98 98 97 95 98 98 98 97 97 98 98 96 87 97 95 96 98 96 97
20 22 20 22 22 23 25 42 25 22 17 27 44 62 79 82 79 76 83 85 85 92 94 94 96 96 95 96 97 97 98 98 98 97 95 98 98 97 98 99 98 98 98 96 97 98 96 95 93
22 23 21 22 19 22 23 24 22 21 18 20 43 65 77 80 77 73 75 81 80 86 87 88 92 93 84 93 97 97 98 98 97 97 95 97 97 97 97 98 98 98 97 98 97 95 94 92 90
29 29 28 27 25 26 25 26 26 20 23 23 53 59 77 78 74 71 68 64 70 72 73 86 90 91 85 88 88 92 93 95 96 95 96 92 97 97 97 97 97 97 98 97 95 91 88 87 89
28 28 23 23 27 27 27 22 20 22 19 21 32 58 66 70 71 55 52 60 63 60 66 81 87 88 84 80 78 77 78 78 82 86 85 85 93 96 96 98 98 98 97 94 93 91 92 82 79
25 27 29 22 27 22 20 27 18 20 23 22 23 46 56 60 52 46 42 56 61 56 64 79 67 83 85 85 85 80 76 74 73 79 86 87 91 92 92 96 97 97 97 96 96 79 75 74 74
33 37 37 27 32 36 31 28 20 23 28 26 25 31 43 42 36 31 36 41 45 53 62 70 67 75 73 77 86 85 78 78 72 77 84 84 86 87 86 86 87 90 91 93 93 76 74 71 69
40 34 37 43 30 37 42 36 33 34 30 29 29 32 34 34 36 41 38 44 45 56 59 54 59 69 66 65 66 66 66 65 72 70 74 80 83 84 86 86 84 84 81 83 85 75 78 73 69
34 38 46 42 36 41 50 47 37 28 31 30 34 34 38 41 45 48 48 50 52 53 44 40 47 51 54 58 57 59 56 57 62 63 63 72 77 80 83 80 83 86 77 70 76 77 73 76 80
34 42 40 38 39 47 46 41 30 30 33 38 40 43 40 42 44 41 44 46 45 45 44 41 39 40 45 51 52 55 55 55 57 59 61 64 70 78 77 76 72 78 77 78 77 76 78 76 82
42 40 42 42 43 48 46 39 35 28 32 32 34 40 42 40 37 43 41 42 42 41 42 41 42 42 46 48 51 52 56 57 55 52 56 52 61 65 77 72 72 71 76 71 68 72 75 68 85
48 36 42 46 56 54 48 49 43 38 34 36 35 36 39 41 43 40 41 44 44 43 47 48 48 48 49 56 57 60 59 59 55 57 54 50 59 66 66 76 77 72 73 78 83 77 80 79 84
43 48 55 55 61 64 50 49 39 39 34 39 42 35 41 39 38 38 39 42 59 58 65 66 60 58 58 61 64 69 65 65 70 70 72 69 68 70 68 72 77 82 84 83 78 74 72 68 68
42 55 51 60 61 69 60 55 47 45 41 40 41 41 40 41 42 41 50 57 63 64 64 64 62 60 61 63 63 68 74 73 75 74 78 78 82 81 81 83 86 83 79 80 81 82 76 78 77
50 61 70 68 78 76 58 56 47 40 39 40 42 36 40 44 48 51 64 65 64 65 66 63 66 64 64 64 62 64 68 70 73 70 74 82 86 81 83 83 81 84 90 90 92 94 91 95 95
58 64 82 66 90 85 64 60 53 40 44 40 38 44 56 63 68 70 68 68 67 66 66 69 68 67 69 72 61 63 62 67 65 68 73 85 83 87 91 95 94 94 94 95 92 95 96 96 96
59 73 63 82 97 92 79 64 49 51 55 51 52 57 61 62 64 67 65 67 69 68 69 73 76 74 76 73 65 67 68 68 65 66 77 83 84 87 94 93 92 91 88 91 93 96 94 95 95
52 53 72 88 93 91 80 77 65 60 60 55 61 60 59 61 64 65 65 66 66 68 72 77 78 77 79 66 66 65 69 67 68 72 77 79 85 91 92 88 81 82 80 84 93 96 93 92 88
66 76 74 74 88 96 98 82 64 62 60 60 64 66 66 61 61 65 68 70 72 74 74 78 77 79 83 66 74 77 70 71 71 69 75 80 84 84 75 67 69 74 81 82 81 78 73 72 72
66 70 69 87 80 93 96 81 54 57 62 62 71 67 68 66 62 66 72 74 75 73 76 80 82 85 80 74 78 78 81 78 69 68 68 70 62 61 60 60 62 65 67 69 72 74 73 73 72

GFSSGP_sfc_rhum_015.txt.gz
RH
43 22 19 15 14 15 16 14 12 42 54 56 53 45 58 74 58 55 70 67 62 67 71 73 92 90 90 91 92 89 86 87 86 85 85 84 81 82 84 82 80 78 70 70 68 73 73 75 74
32 15 15 16 16 18 24 19 20 55 58 57 58 61 65 73 77 74 61 62 60 65 71 74 90 89 88 89 90 91 89 88 89 87 86 82 80 80 85 79 79 74 70 70 71 72 76 79 80
19 10 12 18 19 17 35 31 54 60 55 51 61 61 66 73 75 66 64 60 62 65 70 73 90 88 87 86 88 90 90 92 93 92 89 87 84 83 82 80 81 75 74 73 72 74 81 84 87
14 11 12 21 23 18 23 41 54 53 48 55 58 59 63 63 67 65 58 60 60 63 69 81 91 86 84 85 86 85 88 93 93 92 90 88 86 85 86 84 79 74 74 75 79 84 86 90 90
12 13 19 26 26 25 27 35 48 45 47 50 51 67 69 67 67 65 65 65 58 60 68 67 91 86 84 81 82 87 88 90 91 90 90 88 86 84 82 80 80 83 80 84 84 82 84 84 85
10 12 21 27 21 13 24 28 36 41 49 56 56 60 66 73 68 68 64 64 58 56 62 64 82 86 84 84 85 87 89 89 89 91 91 90 90 90 88 88 88 87 88 87 86 89 88 86 89
11 14 14 14 14 11 11 10 25 34 39 38 47 58 72 77 66 67 66 62 61 59 60 62 60 68 87 86 85 88 88 90 89 90 90 91 92 90 88 89 86 86 84 86 86 87 89 86 85
11 11 13 12 11 11 10 11 11 16 31 44 47 47 67 61 68 70 72 66 64 66 63 66 67 63 66 64 86 87 90 90 90 90 89 89 88 88 84 85 84 84 84 84 85 85 84 84 85
12 13 13 12 12 12 12 11 12 17 35 28 32 48 44 56 70 75 76 70 73 71 70 71 69 68 66 60 66 80 88 91 92 88 90 85 67 67 68 83 86 83 82 82 82 83 83 80 78
13 16 15 12 11 13 14 11 10 16 28 36 40 46 61 66 70 73 72 69 70 68 69 67 73 72 70 54 64 68 69 66 71 74 77 68 74 71 69 76 83 81 81 83 83 82 84 70 56
17 16 16 15 12 13 16 14 13 19 22 25 22 46 63 68 69 69 65 59 60 62 65 70 74 77 74 66 61 61 63 67 69 77 77 78 77 76 72 71 69 70 76 63 69 68 68 72 71
17 17 15 15 16 16 15 15 15 16 12 17 28 48 60 64 68 67 66 63 64 68 66 70 75 79 80 71 67 65 66 67 67 70 78 78 74 78 77 70 71 76 68 71 72 75 77 73 71
18 16 17 15 16 15 17 16 15 15 14 14 33 56 58 58 58 61 59 60 63 66 66 72 77 80 76 74 70 73 73 72 72 73 76 74 73 75 71 71 71 70 69 68 72 71 65 62 56
21 20 20 19 17 18 18 18 17 14 14 17 35 46 54 58 57 56 57 56 59 59 65 70 71 72 67 63 74 73 75 72 73 73 74 80 75 76 70 69 68 68 67 66 74 71 56 55 54
21 18 19 20 20 17 18 17 15 14 13 15 23 39 52 56 58 54 49 50 50 55 59 64 65 68 69 64 62 61 59 63 67 69 75 74 74 71 73 69 69 65 68 77 72 65 61 54 51
20 20 22 19 22 20 16 21 16 15 17 16 20 22 43 52 53 46 44 38 42 49 54 57 55 61 66 64 59 56 52 54 53 55 57 66 68 69 70 67 68 65 72 72 69 62 56 48 44
23 20 24 22 26 26 24 25 20 21 23 23 21 19 31 42 38 25 25 30 41 47 49 54 58 58 60 60 56 62 63 57 52 55 51 58 63 68 68 63 62 67 64 69 68 64 61 48 42
27 24 27 27 24 28 30 28 26 21 24 24 22 22 29 32 26 29 30 30 36 48 49 51 52 54 57 52 53 48 48 46 48 46 45 53 53 62 64 60 64 64 59 62 65 67 58 50 43
24 26 30 28 28 31 34 32 23 23 25 25 25 26 27 26 31 32 36 37 38 47 46 47 44 47 46 42 40 39 40 38 38 37 43 48 47 54 61 56 60 64 63 60 62 61 65 55 52
26 29 27 29 30 34 33 28 25 25 30 32 31 30 30 29 30 34 36 38 40 40 41 38 35 36 35 35 38 41 42 38 39 42 47 47 50 50 52 59 56 58 59 65 66 66 56 54 53
35 30 32 33 34 34 33 27 28 23 25 27 28 29 28 28 28 30 31 36 38 39 41 35 37 38 41 45 39 41 43 44 39 36 36 39 48 50 53 54 57 59 59 60 63 64 64 55 52
38 31 39 40 41 36 37 30 30 30 25 28 26 27 28 28 28 30 32 37 45 47 52 47 46 43 44 49 47 51 44 42 41 46 43 46 51 52 53 56 58 61 61 64 62 57 64 61 56
39 42 44 43 45 42 39 31 31 31 29 28 30 30 30 32 33 36 44 47 48 53 54 52 47 48 50 53 50 47 49 47 47 47 51 51 50 53 55 57 62 64 62 66 69 66 66 60 57
40 43 41 46 47 51 47 40 41 36 34 32 29 30 35 36 37 38 48 46 47 54 55 54 50 47 50 52 49 53 56 55 52 51 49 46 47 52 59 60 66 68 67 68 69 72 75 72 71
42 44 50 62 64 57 47 42 44 40 38 36 36 36 46 50 50 50 48 46 47 49 52 50 50 49 52 58 52 55 58 59 57 54 50 52 50 52 61 65 69 69 71 72 70 78 85 89 93
48 50 65 58 66 61 53 48 46 40 39 39 43 47 49 53 54 52 50 49 49 52 52 54 52 53 53 59 58 54 57 55 54 53 58 57 55 60 70 69 67 70 72 71 78 89 93 91 94
46 60 52 71 90 80 54 48 42 43 41 44 44 44 49 51 52 49 48 50 52 53 56 61 58 53 56 61 60 56 60 60 58 61 62 58 63 66 70 68 68 73 77 79 80 84 89 89 91
44 46 57 70 79 70 52 58 43 48 47 47 47 52 52 48 47 45 45 50 52 53 55 65 58 55 56 60 57 55 60 58 62 60 60 60 64 68 71 69 60 58 58 63 68 70 72 75 74
53 56 62 60 74 83 92 56 49 48 48 46 46 54 54 52 48 45 46 48 53 57 55 56 59 59 58 60 60 64 63 63 56 55 57 60 67 64 57 50 52 57 61 58 59 59 58 61 59
51 54 54 64 64 76 84 59 42 47 48 48 49 56 54 53 51 50 50 52 56 56 53 55 63 62 65 61 62 67 63 54 53 54 56 57 53 53 55 58 65 64 55 57 61 60 56 53 51

GFSSGP_sfc_rhum_018.txt.gz
RH
28 12 11 10 10 12 18 20 22 33 32 34 33 28 32 39 37 43 40 42 35 38 45 52 90 89 91 91 88 85 82 82 80 80 82 81 83 84 81 82 77 71 71 68 70 70 71 76 81
12 9 9 8 10 13 18 18 23 28 33 32 33 34 30 40 41 45 43 43 36 39 43 48 90 89 89 90 92 91 88 86 86 84 82 79 79 83 78 80 79 75 72 70 71 74 78 82 82
11 8 8 9 9 14 17 18 30 33 34 33 34 34 37 42 40 37 37 37 36 40 43 56 88 87 87 88 88 88 89 91 90 87 83 80 79 78 78 81 80 75 72 70 74 78 82 85 84
9 7 9 10 13 19 20 23 25 32 35 32 24 31 38 42 41 36 38 37 31 35 36 71 87 84 83 82 81 85 87 90 89 89 88 86 84 83 84 83 78 77 76 78 81 82 83 82 86
6 8 12 12 16 19 21 24 28 26 28 30 29 35 39 45 45 42 43 39 31 31 35 42 88 83 81 77 80 84 85 87 88 87 87 85 83 83 82 78 78 80 80 84 80 84 81 82 81
7 10 12 16 21 22 24 25 21 20 24 30 26 28 35 46 44 45 42 37 29 32 40 40 77 83 82 80 83 86 87 87 89 89 89 88 88 87 86 87 86 86 86 85 86 87 87 89 89
8 9 12 14 19 19 17 16 16 17 20 23 23 28 39 42 38 40 37 33 33 31 34 37 40 60 83 84 84 87 88 87 88 87 88 89 88 87 87 86 84 83 84 84 84 85 85 83 82
7 7 11 11 10 10 8 9 12 13 20 28 26 22 35 34 41 40 39 35 35 38 35 40 42 40 44 44 81 85 87 88 88 85 86 87 86 83 80 80 82 82 82 82 83 83 83 83 82
7 7 8 8 8 9 8 8 9 15 20 21 21 22 24 35 44 45 43 38 38 40 46 46 42 46 46 42 53 76 84 87 89 81 85 79 45 49 52 81 81 79 80 80 80 80 79 75 78
6 7 9 8 8 7 8 7 9 11 12 15 20 29 32 42 47 48 42 40 42 44 44 44 53 52 51 36 46 47 46 43 48 49 55 44 55 54 54 67 80 77 77 77 78 79 78 73 34
9 8 9 8 8 7 8 8 8 8 10 10 11 22 35 42 44 43 37 29 34 37 39 45 55 58 56 44 38 34 35 40 44 56 56 54 56 54 51 49 46 48 65 41 46 46 38 46 45
9 9 8 8 10 9 8 8 9 9 8 11 13 18 30 36 37 34 31 28 28 33 40 46 53 60 61 43 37 37 38 39 42 44 61 57 50 53 54 46 45 49 42 49 44 42 53 53 48
12 12 12 10 10 10 12 11 12 10 8 10 16 24 26 27 28 30 28 26 29 36 39 46 54 60 54 55 43 47 48 42 47 46 48 55 50 52 49 47 44 42 41 41 44 43 43 44 40
16 14 14 13 13 14 14 13 13 10 10 11 15 19 21 24 24 26 31 32 35 36 40 46 54 58 48 43 50 47 47 42 44 42 43 58 56 51 46 42 38 36 36 37 41 42 43 37 37
14 15 14 15 14 14 12 13 11 10 10 11 13 15 20 22 22 25 26 30 30 32 37 47 53 49 46 44 43 39 35 42 38 37 46 51 54 49 49 41 39 35 38 48 49 48 45 42 34
12 13 13 16 15 16 14 14 12 14 14 12 13 14 20 23 25 25 31 33 30 32 36 42 44 43 44 41 38 34 32 36 34 36 38 45 49 51 50 41 40 39 42 41 42 42 40 40 37
11 11 13 16 16 16 16 15 13 13 14 14 14 13 15 20 26 30 27 27 27 28 32 39 45 39 39 40 36 40 43 38 31 35 32 37 43 46 47 41 40 44 42 41 42 42 44 43 35
14 14 17 16 16 16 15 16 14 14 16 16 16 15 14 19 25 26 24 21 22 33 37 41 40 39 42 36 38 31 30 28 30 28 28 34 34 40 43 40 43 44 44 43 41 46 42 41 40
16 17 17 15 19 22 21 19 15 16 16 17 16 16 18 23 22 20 25 27 28 39 38 37 37 40 32 30 29 27 28 26 26 26 33 38 36 39 44 39 41 42 44 47 51 48 51 48 43
19 19 20 20 21 26 22 18 16 17 20 20 18 19 20 19 19 24 27 31 34 35 34 31 28 29 27 24 27 31 34 30 32 32 34 33 39 38 36 41 40 41 41 47 50 54 52 50 46
24 24 28 27 23 24 23 20 18 18 18 18 18 19 19 21 22 23 25 31 33 35 34 29 30 32 37 36 29 30 30 31 28 33 31 30 34 35 38 40 43 45 44 42 46 49 52 52 49
24 26 30 29 28 20 25 21 22 19 19 20 20 21 22 22 21 24 28 33 38 41 38 35 34 33 35 39 34 40 34 35 36 34 31 33 36 36 36 40 43 47 44 47 47 43 52 53 54
31 33 33 34 30 27 26 21 25 20 22 22 24 24 25 25 27 30 32 34 37 42 42 40 35 36 37 39 40 36 39 36 35 38 44 40 34 33 33 41 47 50 48 52 60 60 59 55 58
30 32 33 33 33 40 34 30 28 24 28 26 26 28 33 32 30 31 33 32 34 41 42 40 35 34 38 40 42 45 48 50 45 41 38 32 32 31 36 42 49 53 55 58 60 70 74 75 74
26 31 39 52 50 43 34 32 37 32 30 29 32 34 37 36 36 34 33 32 34 37 40 37 36 35 36 41 42 45 44 44 43 41 37 41 36 36 41 50 54 51 58 64 68 72 78 85 92
35 36 52 50 49 39 36 31 34 30 28 28 31 32 34 36 36 34 33 34 35 40 40 41 38 37 34 37 40 39 42 42 41 40 43 44 44 44 50 54 53 55 55 63 71 81 88 89 89
36 44 39 56 80 65 32 33 34 32 32 31 31 31 34 36 37 34 33 34 36 39 41 46 42 38 37 38 43 45 46 49 46 48 48 44 48 43 56 54 55 55 54 56 56 61 56 67 73
34 36 47 46 77 45 23 31 25 38 34 33 31 33 36 36 35 33 32 35 36 37 40 45 41 40 42 44 46 46 49 45 49 47 47 49 49 54 55 58 49 50 52 58 66 63 59 64 66
39 42 41 38 52 57 53 27 33 31 33 35 32 37 37 37 36 36 36 36 37 41 40 40 42 44 44 44 48 49 48 47 45 44 46 49 53 50 49 43 49 62 72 77 72 63 57 53 54
36 39 37 49 44 54 63 41 28 30 35 35 36 41 38 37 33 33 36 38 41 39 37 37 44 42 43 44 44 48 48 46 46 47 47 49 48 47 47 50 60 70 70 63 58 56 45 45 44

GFSSGP_sfc_rhum_021.txt.gz
RH
38 14 8 8 10 10 15 18 16 21 22 21 19 19 21 26 35 51 29 28 32 36 43 54 90 91 92 88 84 82 82 81 81 81 82 84 84 82 80 77 72 71 70 70 72 73 77 79 80
9 6 8 8 10 12 14 13 17 19 19 16 16 17 18 28 31 34 32 27 29 32 35 54 91 90 89 92 91 91 85 84 82 81 79 80 82 79 78 77 76 75 73 70 71 75 80 81 79
16 7 8 8 8 10 15 12 19 19 18 18 19 16 22 29 26 28 27 27 28 32 38 62 88 87 87 87 87 88 89 89 88 84 81 78 76 76 78 80 78 73 72 73 74 79 83 84 84
8 6 8 9 13 12 14 17 17 19 20 18 14 23 30 24 26 26 26 24 28 28 38 75 84 84 83 79 82 85 86 87 88 88 86 85 83 83 81 80 78 78 76 78 78 79 78 79 82
7 6 8 10 14 14 15 15 16 17 17 17 15 20 33 32 28 27 25 20 23 22 31 41 82 82 78 77 79 82 83 85 86 86 85 83 82 82 81 78 79 81 83 82 82 84 80 82 83
7 7 9 13 15 16 16 16 15 14 15 14 15 20 33 30 29 30 25 22 20 25 28 36 74 80 80 80 82 84 84 84 86 88 87 86 85 85 85 86 85 84 84 83 85 86 87 87 84
8 9 11 13 16 16 15 12 12 12 13 14 12 19 29 28 30 28 24 20 20 24 26 29 36 61 81 83 85 87 86 84 84 85 86 86 86 85 84 83 82 82 82 83 83 83 83 80 78
6 7 10 11 13 12 9 10 10 10 15 12 13 18 31 30 29 25 23 22 23 25 27 29 31 31 38 51 82 84 86 85 83 82 82 83 85 80 77 81 81 80 80 80 80 80 81 80 79
5 7 8 8 8 8 6 7 6 8 12 12 12 16 18 26 27 27 26 25 27 28 33 32 29 34 35 31 53 78 85 84 86 79 81 75 45 44 54 80 78 77 77 77 77 77 76 76 79
6 7 7 6 6 6 5 5 6 9 10 10 15 16 22 27 28 30 27 28 29 32 31 33 40 39 36 25 35 37 34 36 40 41 45 37 48 48 46 64 78 76 75 74 75 76 74 76 34
6 7 6 6 5 4 5 5 5 6 9 10 12 15 22 27 29 28 25 23 25 28 28 30 46 45 41 36 29 27 28 32 36 44 47 44 46 47 43 42 44 49 67 41 55 48 40 41 42
7 6 5 5 6 6 6 6 6 6 7 7 8 14 20 25 27 26 25 21 22 24 26 32 44 50 45 32 28 29 28 33 33 39 44 46 41 45 45 38 38 39 33 39 39 38 42 47 45
7 7 6 6 6 7 8 8 8 7 7 7 10 14 19 23 23 22 20 20 21 24 25 29 41 52 43 44 34 36 38 34 40 37 40 41 42 46 41 41 37 35 33 34 36 36 36 39 39
9 10 10 9 10 10 11 10 10 8 7 7 10 13 15 17 18 20 22 22 22 23 26 29 36 49 43 34 39 38 38 35 35 34 36 42 44 48 43 40 37 34 30 30 35 38 39 39 36
10 11 12 11 11 11 10 10 10 8 8 9 9 10 13 15 15 17 20 22 22 22 24 29 36 43 44 36 34 31 29 32 30 30 37 38 41 42 45 40 38 35 36 46 40 39 38 38 36
11 11 13 12 11 12 12 13 9 10 10 10 10 10 12 14 14 16 18 19 20 22 23 27 33 41 42 33 31 28 26 30 28 30 32 36 40 42 45 39 40 39 42 39 38 38 38 38 36
10 11 10 14 11 11 12 12 10 11 11 11 10 10 11 12 15 16 20 22 21 22 24 28 36 41 37 34 30 32 35 32 27 30 29 31 36 38 42 40 40 45 41 44 42 41 44 42 40
11 10 11 11 12 10 10 10 11 11 12 12 11 11 11 12 15 20 21 21 20 29 29 31 36 38 36 33 33 28 27 25 26 26 25 32 34 37 40 39 42 41 40 41 42 50 45 46 45
11 12 12 11 13 15 13 13 12 13 13 14 13 13 13 14 21 21 24 24 26 33 33 34 36 39 31 28 28 25 27 25 26 24 31 35 34 37 41 36 37 40 38 44 50 48 52 50 48
14 15 15 15 15 17 15 14 14 14 16 15 16 17 19 20 20 23 27 31 32 32 30 29 28 29 26 23 27 31 33 29 29 31 33 32 34 35 34 43 38 41 39 47 50 52 48 48 48
17 19 22 20 16 16 17 16 16 15 15 15 16 17 17 18 20 22 26 31 34 34 31 28 29 30 34 34 26 28 28 29 27 28 29 29 35 36 39 42 39 44 45 43 49 49 52 50 48
20 21 23 22 20 18 17 19 18 16 18 18 19 20 20 19 20 23 26 31 37 38 35 32 31 30 32 37 32 38 33 34 33 35 33 36 41 37 32 33 36 45 46 51 51 41 52 55 52
23 25 25 24 24 19 18 16 21 16 19 20 22 23 24 24 25 26 28 31 34 38 39 36 31 32 34 37 38 38 40 37 36 38 42 39 33 31 29 32 39 47 46 49 55 61 66 60 65
23 25 24 25 24 33 23 22 21 20 22 23 24 27 28 28 27 27 28 27 31 37 38 36 32 29 31 36 40 43 46 44 38 37 37 33 34 32 35 33 42 48 51 54 63 65 71 73 72
22 25 39 46 42 40 24 22 32 26 24 25 28 29 30 29 29 28 28 28 30 34 35 35 32 33 32 35 37 39 39 41 41 40 38 42 38 36 39 43 49 47 57 61 65 68 71 76 82
27 29 50 46 43 32 25 22 27 24 23 25 25 26 27 28 30 29 29 31 31 33 35 38 37 36 32 36 38 40 42 39 40 41 44 43 41 41 43 47 50 58 66 76 73 72 73 71 68
29 36 29 46 58 54 22 24 27 25 27 26 26 27 29 29 30 28 28 29 31 33 34 38 38 35 35 38 42 44 42 44 44 47 44 42 44 39 45 52 63 62 65 63 65 65 67 72 67
28 27 43 41 66 41 19 20 22 33 29 27 25 26 28 28 29 28 28 31 31 32 34 37 35 34 38 41 42 40 44 43 44 43 45 45 46 45 59 62 66 57 60 65 66 65 64 70 79
29 32 32 27 40 48 42 25 23 24 25 27 25 28 30 30 31 28 29 32 32 34 36 33 33 36 38 37 39 41 40 42 42 41 42 44 46 44 44 49 55 63 67 69 72 70 66 65 60
27 30 30 47 37 43 55 40 22 22 25 27 27 28 30 31 29 30 32 37 39 37 34 33 36 35 35 35 35 37 39 40 41 42 50 56 51 53 55 68 84 81 70 61 63 63 60 61 59

GFSSGP_sfc_rhum_024.txt.gz
RH
41 13 12 12 16 14 13 16 16 20 22 17 17 18 29 36 44 64 39 35 45 58 58 73 94 93 92 90 89 87 86 85 85 87 88 86 83 81 78 77 76 74 72 71 73 76 79 78 79
16 14 10 12 17 16 16 16 20 20 17 13 16 16 28 40 35 34 34 34 36 48 55 69 92 92 92 92 93 91 87 86 86 84 86 84 81 79 77 78 78 75 73 72 74 77 80 81 80
32 14 11 13 13 14 17 19 22 17 14 15 18 24 26 32 31 31 30 32 34 52 62 75 88 89 89 90 91 91 90 91 90 87 83 82 79 79 82 80 78 76 75 75 76 79 82 82 84
15 12 11 13 13 12 13 19 17 17 17 15 19 31 27 25 31 28 27 30 35 51 62 79 86 86 85 85 87 87 88 90 91 90 87 85 83 80 80 79 79 78 77 78 78 78 77 79 81
12 11 13 14 16 15 15 15 15 18 17 15 16 35 38 30 26 25 25 24 31 42 54 64 86 85 84 82 81 86 88 90 89 88 86 84 83 82 83 82 84 83 82 82 82 82 83 86 86
13 10 14 14 17 16 16 14 14 18 16 13 19 31 38 28 27 24 21 23 25 34 46 54 80 85 85 86 87 87 88 89 90 89 87 84 84 85 84 84 83 83 83 83 85 86 85 83 81
14 14 15 16 17 17 17 12 12 13 13 14 13 32 35 30 29 24 22 23 27 29 36 49 62 76 84 86 87 87 87 87 87 87 87 86 87 87 84 83 82 81 81 81 81 82 82 80 78
8 10 12 14 15 16 10 11 10 10 16 10 14 25 35 34 29 25 24 23 26 33 31 40 50 56 67 77 86 87 86 86 85 84 84 85 84 84 84 85 81 79 78 77 77 78 79 80 81
6 10 12 11 12 9 7 7 6 8 12 11 15 20 27 29 26 27 27 26 30 32 43 44 40 50 59 62 70 84 85 85 86 83 82 84 71 73 71 79 81 77 77 77 76 75 78 81 83
6 10 8 6 6 6 6 6 7 10 11 12 18 22 27 27 28 30 29 32 34 41 41 46 54 54 46 28 66 69 58 69 71 65 66 63 64 64 56 71 81 80 80 81 80 80 82 80 66
6 9 7 5 6 5 5 5 6 8 9 12 15 26 28 28 30 30 26 28 32 37 37 45 60 56 54 53 48 51 52 58 65 67 63 66 61 70 71 81 80 87 86 78 79 77 80 63 66
7 6 5 5 5 5 5 5 6 8 9 8 12 16 26 27 28 28 27 26 28 32 36 49 58 62 56 53 51 52 52 58 58 61 62 69 70 72 67 67 62 64 62 61 61 63 64 61 62
7 5 5 5 6 7 7 6 7 7 8 8 12 16 23 26 26 26 25 24 25 32 33 42 58 66 61 57 60 59 60 62 61 60 62 66 66 73 69 67 65 63 59 57 62 59 58 61 58
7 7 7 7 8 8 8 9 10 7 7 8 11 16 19 23 23 25 24 26 27 28 36 44 52 65 59 54 57 60 62 62 63 60 60 58 67 72 70 68 65 63 61 61 62 62 65 64 60
8 10 10 10 10 9 9 10 10 8 8 8 9 12 16 17 17 22 23 25 24 37 33 47 80 58 62 51 52 51 52 48 52 55 55 52 57 64 65 69 67 63 65 66 65 65 63 64 56
10 11 14 11 10 11 11 14 8 8 9 9 9 10 11 15 15 18 22 26 28 32 36 38 33 56 61 55 52 47 48 52 50 50 53 53 53 57 66 68 69 68 70 69 69 69 66 66 65
11 14 14 14 9 11 12 14 9 9 11 11 11 11 12 13 16 18 20 25 27 37 35 37 43 52 55 53 47 51 50 51 50 56 51 58 52 56 63 66 69 69 68 70 69 64 71 70 68
15 10 10 12 12 9 10 10 10 11 11 12 12 11 12 13 15 24 25 30 34 46 41 40 47 57 63 53 50 49 48 47 49 49 52 54 52 58 64 62 66 67 65 66 67 72 70 71 70
10 10 10 10 12 13 12 12 12 12 13 16 17 17 17 27 26 29 32 36 39 46 45 46 52 51 48 47 48 50 53 51 49 46 50 52 51 50 60 61 61 64 64 68 67 69 69 68 70
12 14 14 13 13 15 13 14 13 14 16 16 17 18 25 26 28 32 36 41 43 42 41 39 38 44 42 41 45 51 54 51 50 50 48 48 50 52 50 61 60 62 65 67 70 71 71 69 71
14 17 23 20 16 14 16 17 17 16 16 18 19 20 21 24 27 31 36 44 48 48 47 38 40 42 48 53 43 47 49 52 49 51 50 48 58 57 58 62 63 65 66 70 70 68 70 72 71
19 21 22 20 20 21 16 23 19 18 19 20 21 24 23 23 25 28 35 43 50 52 50 43 41 40 42 50 52 58 55 52 54 55 51 48 55 55 50 52 58 64 70 72 72 64 82 80 84
22 22 22 22 24 22 17 22 21 18 22 23 25 26 28 28 30 31 35 40 43 53 54 49 42 39 44 48 54 60 61 59 55 58 59 57 57 55 50 52 60 68 70 72 84 79 80 80 84
19 24 22 23 26 48 22 21 31 20 22 25 27 29 30 30 31 30 31 35 42 54 51 51 44 39 44 46 52 56 60 61 61 61 62 60 55 52 54 50 64 67 72 75 76 76 80 76 80
21 26 53 68 59 59 25 24 33 24 23 25 31 32 33 33 34 33 32 33 36 43 46 46 46 44 45 51 51 55 60 62 61 62 61 60 55 55 55 59 66 74 76 80 81 82 81 81 88
26 26 67 60 66 49 23 23 33 25 25 26 26 27 29 32 34 35 34 36 37 42 45 46 45 45 44 52 60 60 60 59 59 59 57 60 60 61 61 71 73 73 78 79 79 82 84 87 90
28 38 25 44 71 68 24 33 26 25 27 26 27 26 30 32 34 32 33 38 40 41 46 50 47 42 45 52 58 60 61 63 63 60 62 65 63 50 67 70 74 72 76 77 79 78 78 86 88
23 22 44 58 73 52 24 24 39 33 31 29 26 27 30 30 32 32 31 37 39 42 45 53 47 42 45 48 55 48 52 54 59 60 62 62 64 62 64 69 75 73 74 75 76 78 84 85 85
27 30 31 26 47 62 58 33 24 26 26 29 26 27 32 33 33 32 33 38 40 46 47 48 44 41 44 44 50 54 52 52 55 59 63 68 66 63 62 70 80 82 84 79 80 75 73 71 77
23 28 29 71 52 65 68 45 23 24 26 27 29 30 31 31 33 34 37 38 40 43 44 41 45 44 45 44 44 47 50 59 61 61 60 66 70 63 62 64 74 79 79 77 75 72 66 71 70

GFSSGP_sfc_rhum_027.txt.gz
RH
42 22 22 20 23 24 23 17 24 26 22 28 35 46 56 52 59 85 71 73 78 84 87 89 94 93 93 92 90 89 88 88 88 88 89 87 83 81 80 79 80 76 72 72 75 78 79 78 79
36 19 22 19 25 28 26 26 25 22 20 30 33 40 48 57 44 53 73 66 66 75 85 89 94 94 94 94 93 91 88 87 89 89 87 85 81 80 80 80 83 79 76 75 77 78 82 83 84
32 21 18 21 24 25 31 26 22 21 20 25 36 36 42 48 40 49 58 62 71 80 83 86 92 92 92 93 93 93 93 93 90 88 86 85 82 84 82 81 84 79 77 78 77 76 77 80 85
23 20 15 19 19 22 30 26 22 23 21 29 34 50 39 36 40 41 58 65 76 88 92 88 89 89 88 89 89 90 91 93 92 92 89 85 82 80 80 83 82 80 80 79 79 78 80 86 89
27 22 20 22 25 25 22 21 22 25 33 40 41 50 45 37 35 38 51 55 71 85 89 86 89 88 86 84 84 89 91 92 91 90 89 85 84 84 86 87 86 84 82 82 83 85 87 87 87
20 18 21 23 25 22 20 18 21 24 22 39 46 47 48 36 33 34 44 54 59 70 81 78 86 87 87 87 87 88 89 91 91 91 90 87 87 88 86 85 83 83 83 83 83 83 83 83 82
21 22 24 20 25 22 18 14 18 19 17 26 40 52 48 38 33 32 35 43 51 59 74 84 83 83 88 88 88 88 88 88 87 87 88 87 89 90 88 86 82 81 81 80 79 80 82 82 83
16 17 18 16 20 20 14 11 16 17 17 28 36 51 56 42 35 32 36 40 45 52 60 73 82 83 90 91 88 87 86 86 83 84 84 84 86 87 88 85 84 81 79 77 75 79 80 82 83
12 16 16 14 14 15 12 11 10 15 16 23 30 39 42 37 35 35 37 41 44 46 55 66 70 77 83 87 82 87 86 85 84 84 84 86 85 83 86 84 82 80 80 79 78 78 80 81 81
12 17 13 9 10 10 10 9 10 15 18 38 44 39 36 37 37 37 38 44 45 50 54 56 60 75 75 52 82 88 80 87 87 84 87 85 86 86 74 81 81 80 81 82 81 80 80 82 82
12 11 8 9 8 8 9 9 10 15 20 31 45 42 40 40 40 38 38 40 45 46 54 60 55 56 59 60 80 86 84 90 89 80 70 70 73 79 84 92 88 94 87 89 85 87 88 84 81
9 8 7 9 8 7 7 7 9 13 14 19 36 35 37 39 40 38 37 39 45 50 55 62 62 58 63 63 63 66 67 73 79 75 69 73 83 73 76 77 75 80 85 91 87 86 76 79 69
8 8 8 8 9 10 8 9 10 13 12 17 32 32 36 36 38 36 35 32 38 47 55 63 64 67 61 60 66 63 68 70 69 72 69 70 78 74 76 72 72 69 69 68 67 66 63 66 63
10 8 8 9 12 12 13 14 14 12 10 19 25 34 33 33 33 34 36 29 36 41 57 63 65 76 68 63 60 66 67 67 70 74 68 65 76 75 78 72 74 71 71 72 72 69 70 70 68
10 14 12 13 12 13 15 18 14 11 10 14 18 26 31 31 33 33 33 34 34 45 65 71 84 77 79 66 56 60 70 54 66 64 64 64 64 65 70 75 77 76 76 74 73 72 76 74 67
14 18 21 16 14 14 14 22 14 12 12 14 16 15 23 30 27 31 30 38 42 56 59 73 77 91 96 76 56 55 58 60 56 64 68 61 61 62 70 71 73 76 76 75 75 78 78 78 78
21 23 22 19 14 18 18 20 15 14 12 14 16 16 16 21 30 34 38 44 48 50 52 66 86 92 86 80 75 65 55 52 55 59 65 60 62 66 71 72 72 73 78 79 78 76 83 83 78
23 21 21 22 18 13 15 20 20 17 15 20 20 21 36 41 44 43 48 49 53 55 60 55 57 72 76 74 64 64 61 60 60 61 61 56 63 57 60 63 67 70 71 74 77 77 72 80 79
17 19 21 21 18 20 21 19 21 23 22 23 38 39 42 46 43 44 47 50 49 48 44 49 54 58 50 54 55 57 59 57 57 57 50 48 56 58 63 67 63 65 68 73 72 75 78 73 79
18 22 30 22 18 20 23 24 24 23 30 32 35 39 42 45 46 50 58 63 67 54 50 50 49 51 53 56 59 59 61 58 58 62 61 62 61 59 55 69 71 71 74 74 77 77 78 84 82
27 31 31 28 23 24 26 28 26 26 26 25 30 34 37 44 50 49 52 60 61 59 52 49 51 52 55 55 58 59 61 62 63 60 58 60 61 62 60 61 68 70 77 78 78 88 93 97 92
34 30 29 27 31 38 25 40 33 29 30 30 33 40 41 42 45 49 56 61 62 63 59 51 48 49 52 54 61 64 70 68 70 68 65 61 62 58 55 61 66 74 79 78 89 82 91 89 94
34 33 32 34 38 42 34 38 34 29 36 37 40 39 44 44 48 51 56 56 59 59 57 52 50 51 52 59 62 69 64 65 64 67 70 68 65 61 58 57 64 70 81 91 88 87 77 78 78
24 34 36 37 42 67 43 41 41 33 36 41 41 42 41 42 44 48 54 55 60 62 59 57 54 51 56 56 57 61 64 68 71 72 74 71 68 67 64 57 75 85 88 88 83 81 79 82 83
33 44 78 77 86 74 50 49 58 42 34 40 44 47 46 45 47 46 46 52 57 56 58 53 55 53 54 64 65 67 68 66 65 65 65 66 72 71 70 81 84 89 86 82 81 83 90 90 91
38 41 82 74 88 73 36 51 49 39 38 40 40 42 43 44 42 44 44 47 50 52 56 55 52 51 60 65 67 70 66 75 71 64 68 72 68 71 74 79 81 80 81 87 88 94 91 90 93
35 50 35 59 80 84 51 46 40 37 36 34 35 41 44 44 41 41 44 50 53 54 60 59 50 50 57 64 63 64 64 68 66 64 69 78 77 60 77 81 83 82 82 84 83 86 91 93 94
33 32 58 73 73 70 48 58 70 45 40 36 34 39 44 45 43 46 51 52 53 54 57 56 52 53 54 55 57 55 57 61 69 74 78 81 79 73 74 86 86 89 91 88 85 87 89 90 92
41 45 44 44 69 80 85 57 45 50 44 46 43 42 46 43 48 49 50 51 51 54 56 56 52 52 52 50 52 56 68 71 73 72 73 78 78 78 75 76 86 87 90 91 91 90 84 81 81
34 42 44 80 64 84 87 64 33 46 42 41 40 38 43 44 46 46 49 52 53 52 52 52 53 52 49 48 51 52 68 68 67 68 66 69 70 77 72 68 67 79 85 86 88 88 76 69 67

GFSSGP_sfc_rhum_030.txt.gz
RH
42 24 22 21 22 25 26 23 31 37 51 49 45 56 64 64 63 88 88 88 92 96 90 90 94 93 92 90 90 90 90 88 87 86 86 84 82 81 79 79 80 78 75 75 78 78 79 80 81
33 18 22 21 25 30 35 30 40 40 45 43 43 49 60 79 78 93 90 79 88 92 94 94 96 95 94 94 92 89 88 88 88 86 84 82 82 82 80 80 85 80 78 76 76 77 78 81 84
26 20 18 21 27 30 43 29 29 33 36 39 45 45 47 72 80 81 76 77 85 94 93 93 95 95 95 94 94 94 91 91 91 89 84 84 85 83 81 82 85 80 78 77 75 75 77 81 84
25 19 16 20 22 20 31 27 33 37 40 40 44 52 44 46 56 72 75 78 90 96 95 94 94 93 92 92 92 93 93 93 93 92 88 84 82 80 82 84 84 82 80 77 78 80 84 87 87
27 21 21 21 23 28 24 26 30 44 50 47 42 52 52 66 67 71 74 75 86 94 94 92 91 89 88 85 86 92 92 92 92 91 89 84 82 84 87 87 85 82 80 80 81 83 83 83 84
20 20 21 24 30 23 18 25 40 49 46 44 46 48 52 59 64 65 67 73 76 89 93 85 87 88 88 88 89 91 91 92 92 91 90 87 87 87 84 84 82 81 81 80 79 79 79 80 82
22 24 24 21 20 29 20 19 33 48 47 50 42 51 48 45 53 55 61 69 72 82 91 94 91 86 87 87 87 88 88 89 89 88 89 89 89 89 87 84 81 79 78 76 74 76 78 80 81
19 18 24 18 24 19 16 16 18 29 42 40 38 54 48 41 44 48 55 60 71 78 83 94 94 90 92 92 88 88 87 87 86 85 86 88 88 88 87 85 83 81 78 75 74 76 77 78 80
14 20 21 17 19 14 12 15 15 23 33 38 40 47 34 38 41 50 58 60 65 66 77 86 87 88 91 91 85 87 87 87 86 83 85 90 90 90 89 85 82 80 79 78 77 78 77 78 80
18 20 16 12 12 11 10 11 13 34 52 56 52 40 39 36 40 46 50 55 58 64 70 72 81 83 86 63 87 88 82 87 87 87 88 89 91 91 85 87 82 81 80 81 81 82 83 83 88
14 11 11 9 10 9 10 12 13 36 56 51 50 45 42 38 39 40 43 46 50 55 62 69 75 82 78 68 88 92 92 95 94 90 92 92 87 94 92 93 94 94 87 93 88 90 91 88 89
10 11 8 12 10 9 8 9 13 18 34 43 41 40 44 41 40 38 40 46 56 57 59 60 67 76 72 72 84 87 88 90 92 88 80 85 90 82 89 94 91 90 86 92 94 94 84 81 79
10 10 9 12 11 10 9 10 14 17 35 41 40 38 40 38 37 36 35 40 50 55 55 60 65 69 67 69 73 73 77 83 85 80 74 80 79 79 80 80 78 77 77 76 74 74 70 70 68
9 9 9 10 14 13 13 16 13 16 37 42 39 40 39 39 38 38 42 39 46 52 62 77 74 80 82 68 64 66 76 72 80 79 75 75 81 79 80 76 77 76 80 81 80 77 78 79 79
10 11 12 14 15 16 15 18 16 12 36 41 39 39 39 38 37 37 39 38 40 56 71 70 88 85 81 77 72 63 68 70 78 73 72 72 75 76 76 77 76 77 82 80 80 79 82 80 73
16 19 21 17 16 16 15 20 16 13 25 40 40 39 38 43 40 44 45 49 58 60 71 80 78 82 85 88 89 76 62 64 69 72 75 69 68 71 76 73 74 79 80 79 80 83 81 82 83
23 23 24 23 16 18 20 22 18 14 16 21 25 42 45 55 56 56 59 62 67 73 85 94 93 90 85 91 84 74 69 66 68 70 74 66 69 68 72 72 75 75 71 75 78 76 84 82 76
28 24 24 24 20 20 18 25 21 19 19 35 49 56 56 56 55 52 54 53 57 63 75 82 87 87 89 87 79 75 69 62 66 68 63 68 66 66 70 72 71 71 72 76 77 77 78 81 80
20 26 24 26 21 20 24 27 29 34 48 53 55 56 57 58 57 55 60 66 50 53 58 70 77 70 69 72 74 68 63 64 68 64 66 66 64 62 67 70 70 73 75 79 79 84 80 82 89
25 29 31 24 21 20 29 30 36 40 48 50 53 56 59 59 55 55 67 74 76 78 66 64 59 57 55 62 65 65 66 69 67 66 67 65 62 61 53 68 68 72 80 78 81 88 92 95 94
38 36 38 32 30 27 28 32 39 37 40 42 48 53 55 58 63 59 61 76 75 68 65 57 56 56 59 61 62 66 68 70 67 69 69 66 64 63 65 66 71 73 79 81 89 91 88 95 92
45 36 33 32 35 33 30 45 40 42 43 43 47 57 60 58 58 59 62 64 62 63 58 56 55 57 57 61 65 65 69 66 73 75 72 69 65 64 63 65 70 76 86 92 93 85 90 84 81
35 34 38 39 42 47 41 42 42 42 48 49 53 54 59 62 61 63 63 61 62 58 58 60 56 56 61 65 68 72 67 74 76 78 71 67 67 64 62 71 82 88 92 93 89 88 88 90 90
30 38 46 46 50 66 48 47 47 49 46 49 47 51 54 59 62 62 63 61 64 67 66 64 60 61 66 69 72 76 76 76 75 70 70 72 72 70 75 79 87 90 92 92 93 92 91 94 93
34 55 76 77 81 74 52 60 61 44 43 44 53 54 53 54 59 64 64 65 70 72 66 62 59 65 64 67 70 71 72 71 66 64 69 70 72 75 82 86 88 92 91 91 92 93 93 93 95
42 51 78 67 81 70 45 64 60 50 43 45 43 48 48 50 51 59 61 61 62 61 62 62 59 63 68 72 69 71 72 72 70 66 73 79 81 80 81 86 81 82 84 89 91 94 94 92 95
42 51 42 70 81 80 61 56 46 47 44 42 45 47 48 48 52 56 56 58 60 62 62 57 59 65 64 66 64 64 70 69 70 74 81 85 80 68 82 83 83 88 89 89 89 94 93 94 94
33 36 59 74 69 71 56 63 63 58 53 48 46 47 49 52 55 57 57 58 60 63 64 62 60 58 57 57 57 57 64 72 76 81 82 78 78 78 80 84 89 88 90 91 92 94 92 91 93
41 48 50 52 74 78 84 61 46 52 53 48 46 49 50 52 54 59 60 58 57 57 57 60 59 54 52 52 57 69 75 75 76 73 75 77 78 75 78 77 80 90 90 91 93 93 91 88 82
37 46 52 78 60 86 86 65 47 49 48 48 47 48 52 55 60 62 60 60 59 56 54 58 58 53 50 50 52 55 73 74 72 71 71 74 70 71 77 72 61 64 68 71 75 80 71 70 69

GFSSGP_sfc_rhum_036.txt.gz
RH
68 33 28 23 19 26 31 23 36 52 63 66 63 70 82 91 81 88 94 97 93 90 96 94 93 92 92 92 93 92 89 84 83 83 84 83 82 80 81 82 82 78 74 74 74 74 74 75 78
36 25 24 22 23 26 33 27 46 62 65 67 64 66 80 94 83 96 91 88 82 90 97 96 94 94 94 94 93 90 86 85 85 84 84 82 82 82 82 82 81 78 74 70 69 71 75 79 80
40 25 20 23 28 27 32 42 56 55 52 51 54 52 68 93 84 88 85 85 85 90 92 98 96 95 94 94 93 92 91 91 89 88 83 84 83 81 80 83 82 76 69 67 68 72 75 78 79
29 22 20 22 22 20 32 55 49 50 44 49 51 63 63 75 85 92 83 81 88 93 95 99 97 96 94 94 94 93 93 93 92 90 85 83 79 78 81 84 79 73 70 68 68 71 75 78 80
28 24 24 35 28 27 24 45 56 50 51 51 48 60 73 90 90 95 90 88 92 98 99 98 97 96 94 91 91 94 94 94 93 92 88 81 79 81 84 82 78 76 71 69 69 70 72 75 78
25 24 27 41 52 36 47 43 49 50 52 54 60 66 87 90 94 94 89 96 96 98 98 96 94 95 94 94 96 96 95 95 94 91 89 85 84 85 81 79 77 74 72 70 69 72 73 77 76
24 26 28 45 49 39 41 38 54 51 50 54 53 84 90 90 90 86 92 94 94 95 96 96 96 93 93 94 93 94 92 92 91 90 90 89 88 87 84 81 77 74 74 72 73 75 77 79 80
25 21 26 30 40 45 30 37 47 47 56 43 55 94 96 82 82 81 86 92 94 94 94 95 94 94 94 94 91 92 92 91 89 88 87 89 87 85 82 81 79 76 76 78 79 80 82 82 84
20 24 25 26 38 38 32 36 24 44 48 50 50 69 70 74 72 76 85 89 91 86 93 95 95 94 93 92 90 89 88 87 88 86 86 91 93 92 90 85 82 81 81 82 83 85 86 86 86
24 26 22 19 22 34 31 32 43 50 59 54 59 65 68 70 70 71 76 80 85 85 89 94 94 93 92 74 92 92 89 92 92 92 91 92 92 93 90 91 88 86 85 84 84 84 84 86 90
23 22 14 13 23 16 27 31 46 56 65 56 63 71 70 70 62 62 63 62 65 74 80 88 92 92 92 81 94 95 96 95 93 90 92 93 92 96 96 98 96 95 83 87 87 86 89 81 82
19 15 10 12 14 17 31 25 52 49 42 46 53 60 61 60 55 52 52 59 63 70 73 82 86 87 90 88 94 94 96 96 97 95 93 96 97 96 95 97 93 87 85 83 84 85 81 81 80
16 12 14 11 11 16 14 23 43 28 58 45 51 52 53 49 50 44 42 49 59 67 70 78 84 89 84 85 92 92 95 96 94 95 93 94 95 91 90 86 87 87 88 89 86 84 81 78 75
12 12 14 13 12 14 15 20 19 42 57 49 49 52 53 49 51 55 55 58 61 62 69 78 84 89 84 82 85 90 92 93 94 95 88 85 88 88 89 86 85 86 86 84 83 82 79 76 75
14 13 13 14 16 18 16 20 24 56 51 50 47 48 49 50 51 49 51 54 61 64 69 81 92 92 94 89 88 86 81 82 90 86 84 83 85 86 86 84 82 82 79 80 78 76 75 74 70
18 20 18 16 17 20 15 19 22 65 55 61 57 55 64 71 72 78 68 51 65 74 93 96 91 96 94 90 92 87 75 78 84 81 78 78 77 78 78 77 78 79 79 81 79 79 77 77 78
24 24 28 24 20 20 20 25 29 65 61 60 61 72 71 74 70 70 87 81 79 94 96 98 97 96 96 94 91 91 80 71 82 75 68 69 68 70 70 72 75 74 75 77 78 79 83 81 86
25 27 28 28 25 21 23 42 54 51 57 74 79 78 77 76 75 71 82 93 95 96 95 96 95 96 97 93 89 78 66 72 72 69 67 63 62 63 65 67 70 72 71 76 80 80 81 85 92
26 26 30 31 26 37 61 67 69 72 76 83 82 80 78 76 74 75 78 81 84 89 87 93 97 95 89 91 86 82 86 75 72 68 65 66 65 65 67 68 69 75 76 80 82 89 91 93 94
30 31 35 35 31 41 61 62 68 70 80 83 80 79 77 75 74 76 83 89 87 87 87 80 68 65 63 67 71 71 75 77 74 74 72 70 69 66 62 72 77 81 86 89 93 94 95 96 94
43 37 42 36 37 38 45 53 64 62 69 70 73 73 70 72 78 84 82 85 80 67 63 59 60 60 64 69 74 78 79 79 76 76 74 72 68 68 71 76 82 88 91 93 94 93 91 96 93
44 41 36 36 34 42 39 50 62 66 73 75 74 77 75 72 78 78 74 72 69 70 68 64 62 63 65 69 67 67 71 74 85 81 77 71 67 70 76 80 85 86 91 87 93 88 94 92 93
42 39 41 42 48 47 48 56 63 67 75 73 77 77 76 79 79 72 68 63 72 73 75 73 68 68 72 72 72 78 82 87 84 78 71 70 68 72 78 80 83 85 91 93 92 92 92 95 95
37 47 53 60 58 68 59 52 60 71 67 70 68 72 72 73 76 70 66 67 75 76 76 74 70 74 72 74 74 76 80 81 76 73 71 72 74 74 80 81 89 90 92 92 93 93 91 93 95
46 56 76 79 80 75 58 61 58 52 58 61 66 70 70 70 71 72 69 72 72 65 66 70 72 71 72 74 76 78 78 72 67 67 70 70 75 79 80 83 88 93 92 92 93 93 94 94 95
54 51 77 65 84 73 58 73 62 61 51 57 60 65 67 70 70 74 67 67 72 71 72 72 71 73 72 71 74 74 70 71 69 68 75 78 81 81 79 82 89 87 88 91 93 96 96 95 97
52 55 50 79 85 81 72 67 62 63 65 62 62 62 65 61 62 70 73 72 72 69 65 72 72 75 74 69 73 76 73 72 75 76 80 85 84 78 84 87 90 90 91 92 94 97 94 94 95
40 45 63 75 66 66 69 75 76 70 68 64 62 64 66 69 72 72 70 70 70 66 65 69 75 68 70 65 66 62 67 72 79 81 80 85 88 86 85 89 91 92 91 93 94 95 94 95 95
47 54 61 64 78 77 84 70 60 63 61 62 64 67 69 73 71 68 65 63 62 60 59 68 65 60 59 61 63 67 69 77 82 85 87 87 86 85 85 86 86 78 82 85 88 88 84 90 76
46 52 50 63 51 88 85 67 56 64 62 64 65 66 74 72 70 67 65 63 62 60 57 64 64 61 65 62 65 66 67 72 79 82 83 85 85 83 83 84 81 81 76 74 74 75 70 71 70

GFSSGP_sfc_rhum_042.txt.gz
RH
35 13 8 12 14 11 12 14 25 40 54 45 40 43 47 52 55 69 71 56 52 55 56 62 90 91 91 91 91 90 87 83 82 82 82 81 81 82 82 78 76 72 66 66 67 66 64 64 66
10 10 10 11 13 11 11 12 26 44 48 44 42 43 44 60 59 85 67 62 57 58 50 53 94 91 92 92 90 88 84 83 84 82 81 81 82 81 78 78 78 69 63 62 60 60 62 66 69
14 10 11 12 12 14 11 24 40 49 50 67 58 47 49 58 74 76 66 63 56 50 46 61 93 92 91 92 90 88 88 89 88 85 81 81 79 77 78 76 76 69 62 59 59 60 63 68 72
9 9 9 13 12 12 18 34 41 39 40 43 74 73 64 69 80 80 68 62 54 50 48 82 96 94 92 91 91 92 91 91 90 88 82 76 76 77 76 75 75 65 62 62 62 62 65 71 76
9 10 9 10 12 14 19 31 31 33 38 39 35 45 63 73 64 74 73 56 53 50 53 66 97 95 92 92 92 93 92 92 91 89 84 78 77 75 75 75 72 69 66 66 67 69 72 76 77
10 10 9 10 15 20 26 30 27 30 28 36 38 43 69 72 68 74 68 62 65 67 60 65 91 94 94 94 94 93 93 93 92 88 86 82 80 78 74 72 71 70 70 70 71 74 76 78 79
10 9 11 16 21 29 34 28 31 30 28 35 40 48 79 87 78 75 72 77 68 66 62 59 59 78 95 94 94 94 94 92 89 88 89 87 85 83 80 78 74 73 74 73 74 78 80 81 80
11 10 18 20 25 36 33 25 32 30 29 39 41 48 79 82 84 77 67 60 61 63 52 48 50 50 55 63 95 95 92 90 88 88 87 86 83 81 78 79 78 76 75 76 78 80 80 77 78
11 11 18 29 29 40 31 26 26 30 32 37 39 49 53 72 70 66 63 61 62 56 54 50 45 49 47 46 67 85 88 87 86 81 85 81 44 47 51 79 81 80 79 79 80 80 76 74 72
12 11 13 18 27 29 32 27 27 30 37 39 42 53 57 61 62 63 62 62 47 43 42 43 48 50 49 39 50 50 47 46 48 48 54 45 53 48 48 67 80 78 71 74 73 71 69 55 31
11 12 12 12 26 24 30 24 24 22 31 30 33 56 57 58 58 55 41 31 31 35 37 41 53 56 50 49 44 40 41 47 51 58 54 55 53 52 46 44 42 45 55 36 42 40 36 44 37
13 11 10 12 23 22 27 22 26 24 22 26 27 47 51 51 49 36 27 25 28 35 38 43 50 57 56 43 42 46 44 48 48 52 60 58 54 60 58 46 44 46 40 46 42 39 45 42 39
13 11 10 17 20 19 22 23 25 24 30 31 39 46 43 39 29 22 20 23 30 35 39 44 48 52 54 54 50 53 53 49 57 55 62 60 69 64 51 51 43 44 40 38 40 38 36 38 37
12 9 10 14 18 18 22 28 24 26 32 42 47 40 30 28 22 23 24 26 33 36 42 47 50 52 52 54 61 59 62 61 57 66 77 78 77 65 52 49 44 40 39 38 39 40 37 35 36
10 11 11 12 16 17 15 21 16 27 32 40 37 34 27 23 21 23 22 23 29 36 47 54 58 57 59 59 57 58 58 72 78 73 77 74 64 60 55 47 43 41 41 42 39 41 35 33 32
10 10 14 13 14 13 12 15 22 33 32 34 33 32 30 26 24 25 30 27 27 37 51 60 66 69 68 71 76 77 81 75 75 71 73 67 60 54 50 43 45 45 42 40 38 36 36 33 32
10 11 11 12 11 13 12 15 24 35 30 32 32 31 30 34 34 36 39 34 32 40 53 66 68 72 76 77 94 94 82 71 60 53 55 56 54 51 48 45 45 43 39 40 37 33 34 32 29
14 10 11 11 13 10 12 20 24 36 31 31 32 33 34 35 38 48 48 45 39 50 58 71 72 91 97 97 94 87 58 53 49 46 45 46 45 46 43 42 44 37 32 31 35 39 34 34 36
12 13 11 12 17 16 16 21 24 37 34 35 35 37 38 40 46 50 56 57 59 74 72 72 78 91 92 67 63 51 53 45 42 38 42 42 41 43 45 35 35 33 33 39 40 37 37 33 36
13 15 17 20 18 20 24 27 29 34 36 36 36 38 40 46 50 58 59 60 62 68 69 68 61 64 57 47 40 38 38 36 35 38 44 42 44 42 34 37 32 36 33 39 42 44 39 33 33
20 19 21 18 23 23 22 27 33 39 42 43 42 38 41 45 53 60 61 62 65 65 62 53 50 49 43 40 39 40 42 42 39 40 38 40 40 36 36 37 38 39 37 36 43 42 45 40 36
21 21 20 21 20 18 22 17 28 35 37 42 45 45 45 47 46 46 44 49 50 51 45 37 39 39 42 44 38 40 33 33 39 40 38 36 38 35 34 37 40 43 42 44 42 35 47 45 43
25 22 21 20 20 21 21 19 23 35 38 38 44 45 47 45 40 35 32 34 33 41 41 40 38 37 41 42 41 40 42 42 41 41 45 41 38 37 35 37 43 44 42 45 50 51 50 44 46
26 26 26 25 25 30 21 24 12 20 26 37 42 47 47 44 36 30 31 32 35 45 46 43 39 40 43 44 46 47 48 43 39 38 36 33 32 32 36 37 42 44 46 48 48 51 53 53 53
25 24 29 37 38 33 33 31 18 25 31 33 43 46 44 39 36 34 35 35 36 43 46 46 40 42 44 46 45 45 44 40 36 34 31 35 31 33 37 42 45 42 44 48 50 52 52 54 56
25 23 32 30 36 31 34 30 26 31 31 30 36 39 40 37 35 34 34 35 39 43 42 41 40 42 42 42 44 42 35 32 32 35 39 39 39 41 47 49 46 43 43 46 50 52 55 58 56
31 29 30 42 58 48 23 26 26 33 34 32 37 38 37 36 36 35 37 39 40 42 47 46 42 40 42 44 46 47 41 40 39 42 45 43 47 38 36 38 37 37 41 45 51 56 55 54 58
27 27 36 37 47 31 18 24 17 33 36 36 38 38 36 35 36 37 38 44 43 41 43 47 41 42 45 44 44 39 39 38 42 45 45 40 34 32 35 36 37 39 41 44 50 52 46 52 58
33 32 31 27 39 31 29 16 27 30 31 34 35 36 34 35 38 40 41 44 41 38 39 41 42 40 40 41 43 42 36 37 37 33 32 32 35 34 36 37 41 42 44 48 57 58 50 61 59
25 27 26 32 32 47 46 21 23 31 34 32 32 33 32 35 38 40 41 41 37 36 36 38 40 40 40 42 38 33 31 31 30 30 32 37 38 39 39 40 42 44 48 64 68 71 72 61 49

GFSSGP_sfc_rhum_045.txt.gz
RH
36 16 9 7 12 9 10 10 9 29 35 33 31 30 42 45 59 71 50 46 52 49 52 61 92 91 92 91 90 89 86 83 82 82 82 82 82 82 78 76 74 68 64 62 59 58 58 63 67
9 7 6 9 11 11 10 8 12 40 42 37 38 37 41 50 55 60 64 48 51 50 54 58 94 92 92 92 90 88 83 82 82 81 81 82 80 77 76 72 74 68 60 58 56 59 64 67 70
11 7 8 9 11 10 10 15 34 39 38 36 39 36 43 57 64 70 60 54 50 51 52 65 93 94 93 92 90 87 88 88 86 84 81 79 76 77 73 72 74 66 59 57 56 61 66 71 74
7 5 7 11 12 10 10 26 31 35 34 34 40 49 50 69 68 67 65 54 56 54 61 83 94 94 92 90 89 90 90 91 89 86 79 75 76 73 73 73 71 64 63 62 61 65 70 75 77
6 7 9 9 9 8 10 30 29 33 28 34 33 65 75 60 66 58 66 57 59 69 61 64 94 92 88 89 89 91 91 91 90 85 82 78 74 73 74 72 69 68 66 67 68 70 74 76 77
7 7 12 10 9 11 15 25 31 31 24 24 28 43 58 50 54 58 59 73 78 64 64 64 89 90 91 93 93 93 93 93 90 87 85 79 76 75 72 70 70 70 70 70 71 75 76 76 76
9 10 12 10 12 20 41 32 33 50 35 26 26 46 62 59 50 73 84 89 71 68 67 61 64 83 94 94 93 93 93 91 88 89 88 86 85 82 79 77 72 72 72 72 74 76 77 74 74
8 9 12 11 14 20 23 28 23 25 32 24 27 40 68 60 70 81 89 78 74 70 58 46 51 52 62 74 94 93 91 88 88 87 85 84 81 79 79 80 77 74 74 75 77 76 73 69 72
8 12 12 15 19 66 30 26 21 21 23 26 31 32 37 63 65 72 72 73 64 47 45 42 41 45 50 54 73 86 88 87 86 80 82 79 42 46 52 80 80 76 75 76 75 72 68 68 72
9 12 12 37 49 30 26 32 19 27 25 28 34 44 56 62 57 62 61 61 54 43 38 38 45 44 40 34 50 46 45 43 45 46 51 42 47 50 49 63 79 71 69 72 71 66 64 64 30
10 12 11 36 60 25 18 19 20 23 24 19 28 52 54 52 54 52 46 42 33 34 34 40 48 46 40 42 38 35 40 46 48 51 48 53 46 49 47 49 50 45 57 39 44 41 35 43 39
12 10 9 9 18 18 19 20 19 18 18 19 25 39 41 41 43 40 34 23 27 31 35 40 46 49 46 39 34 40 38 42 42 55 54 53 56 61 53 45 41 45 37 45 40 37 43 41 40
10 11 10 14 16 17 20 45 58 17 16 16 33 36 37 37 34 22 18 21 28 31 34 37 43 48 49 47 46 47 48 49 60 63 67 62 70 62 59 53 43 43 38 37 40 40 39 40 39
10 13 16 19 20 18 21 29 18 21 19 27 34 32 28 26 19 18 21 26 29 31 38 40 43 47 48 53 57 56 57 54 67 70 70 74 69 70 53 49 44 40 41 40 40 41 40 42 38
10 19 19 17 18 18 17 19 18 21 21 29 29 26 22 17 16 19 21 27 29 34 39 45 49 49 54 52 51 51 54 57 63 71 74 68 63 61 58 53 50 44 43 47 43 48 43 34 31
13 11 21 15 16 16 17 17 16 21 22 23 22 19 17 16 17 18 19 23 29 35 44 47 49 57 59 64 63 62 68 73 80 70 67 68 62 56 50 47 49 47 44 44 44 35 32 31 29
11 15 15 15 12 12 14 13 17 19 20 23 22 21 19 20 17 21 23 22 25 38 46 56 60 65 78 82 93 97 95 93 84 58 56 56 54 51 49 47 47 43 38 36 35 34 35 34 31
13 13 12 14 12 10 10 13 18 20 19 23 23 23 23 25 25 29 29 28 26 40 49 58 63 75 84 87 83 78 81 60 50 48 45 45 44 45 42 42 43 36 34 36 38 42 34 33 30
11 9 10 8 8 9 10 12 17 20 20 22 24 25 25 28 29 36 36 36 32 44 54 67 77 76 65 61 60 60 54 44 41 38 41 41 40 42 45 35 35 37 33 37 40 39 41 36 34
10 13 11 11 9 14 11 13 15 20 21 20 22 26 29 30 36 39 43 45 48 60 64 67 62 62 57 48 44 41 38 35 34 37 42 41 43 39 34 40 35 37 35 38 41 45 42 39 38
12 14 23 14 14 12 14 16 21 20 20 22 22 23 25 31 38 45 48 52 58 64 68 59 52 47 41 36 33 34 35 38 37 39 38 40 39 35 35 36 37 39 37 37 43 43 44 41 39
17 16 14 15 17 18 15 17 18 22 26 30 30 29 30 32 38 43 46 60 63 60 52 43 38 34 33 34 34 38 33 37 42 35 34 37 37 35 33 33 37 42 40 43 41 35 45 47 44
23 17 16 15 14 17 17 14 23 21 24 28 30 33 33 37 40 41 42 42 40 43 39 34 32 32 36 37 35 38 37 37 35 36 42 41 38 34 31 34 38 41 39 42 46 49 51 48 54
19 19 18 17 17 28 16 18 13 19 18 22 28 32 36 36 36 31 31 32 34 40 39 37 34 33 37 39 40 40 43 38 36 39 38 33 29 28 30 30 36 40 40 40 42 47 46 56 54
18 21 36 35 30 32 20 21 14 14 20 18 29 34 37 36 33 29 28 27 33 38 40 38 35 36 39 42 43 43 42 39 36 34 32 31 30 30 33 39 41 38 39 39 40 44 50 53 55
19 18 29 31 30 24 21 17 21 20 23 22 27 31 37 37 32 28 28 28 32 39 41 39 36 39 41 42 40 40 36 31 31 31 34 36 35 36 39 41 39 35 35 36 41 42 48 53 64
22 22 21 28 50 41 16 15 25 23 25 25 29 33 38 35 32 28 29 31 33 37 40 41 38 39 39 40 40 38 37 34 35 36 38 38 40 33 32 33 35 35 36 37 40 42 46 54 57
21 20 28 27 39 30 13 14 17 23 24 25 29 34 36 32 30 28 28 33 34 36 39 43 39 38 37 38 37 34 35 36 36 39 40 37 33 31 32 34 35 36 37 38 40 41 44 56 51
25 25 22 21 28 35 26 17 15 18 20 25 26 31 33 32 30 29 30 33 36 38 40 43 38 37 35 34 39 44 39 34 36 34 30 29 32 32 33 33 35 36 37 37 42 51 52 60 53
19 20 21 36 28 32 42 22 15 18 19 21 23 28 28 28 28 29 31 35 38 39 38 39 38 34 34 37 48 39 35 32 30 28 27 32 34 36 35 35 36 37 37 39 53 66 54 57 56